DECAYED

FENGYUN 1C DEB, 31326 (Decayed)

Orbit data source: Space-Track

FENGYUN 1C DEB, 31326 was space debris in SSO originally from a launch on Mon, 10 May 1999 UTC launched from the Taiyaun Space Center, China (TSC). Fengyun 1C debris stems from the Chinese weather satellite Fengyun-1C, which was intentionally destroyed by a Chinese anti-satellite missile in 2007. This event dramatically increased the amount of space debris, with thousands of trackable fragments posing hazards to satellites and human spaceflight. The Fengyun 1C debris cloud has become a focal point in discussions about space sustainability and the need for international regulations to prevent the creation of new debris.

Not visible in the next 10 days
Identifier
31326, 1999-025BQE
Orbit
Decayed
Country
Flag of CNCN / PRC
Related business
Manufacturer
Unknown
Mission
Decayed spacecraft
Bus & Motor
Unknown
Mass
Unknown
Launch date (UTC)
1999-05-10 (27 years ago)
Launch vehicle
Unknown
Launch site
Taiyaun Space Center, China (TSC)
Object type
Payload
Rocket body
Debris
Shape & HBR
Unknown shape, 0.1 m
Radar Cross Section
Small (<0.1 m²)

Expand to show TLE details & history
Last TLE update: 3 months ago

TLE from 3 months ago
0 FENGYUN 1C DEB
1 31326U 99025BQE 26066.69580911  .02135581  00000-0  28155-1 0  9996
2 31326  99.0013 329.7670 0011548  97.7320 262.5241 15.55118389  1122
Epoch: 2026-03-07T16:41Z
TLE epoch observation values (Epoch: 2026-03-07T16:41:57.907Z)
Latitude
0.00002°
Longitude
-86.13804°
Altitude
405.923 km
Speed
7.667 km/s
True Right ascension
21h 59m 04s
True Declination
0° 00' 00"
Sunlit
Object was in daylight at epoch
Visualization orbit readout
Latitude
Unknown
Longitude
Unknown
Altitude
Unknown
Speed
Unknown
Apparent Right ascension
Unknown
Apparent Declination
Unknown
Sunlit
N/A
Visualization observer readout
Local Sidereal Time
01:13:58
Azimuth
Unknown
Elevation
Unknown
Doppler factor
Unknown
Orbital elements
Apogee altitude
406.63 km
Perigee altitude
390.978 km
Semi-major axis
6,776.941 km
Eccentricity
0.00115
Inclination
99.0013°
RAAN
329.767°
Arg. of periapsis
97.732°
True anomaly
262.39292°
Mean anomaly
262.5241°
Eccentric anomaly
262.45851°
Mean motion
3.89039 °/min
Orbital period
92.54 mins
BSTAR
0.028155
Loading maneuver chart data...
Computing Atmospheric mass density...

Documentation

Showing up to 5 results
|